Weather Roundup
Issued by NWS Springfield, MO

Home | Current Version | Previous Version | Text Only | Print | Product List | Glossary On
Versions: 1 2 3 4 5 6 7 8 9 10 11 12 13 14 15 16 17 18 19 20 21 22 23 24 25 26 27 28 29 30 31 32 33 34 35 36 37 38 39 40 41 42 43 44 45 46 47 48 49 50
000
NZUS99 KSGF 231357
HRRSGF

HOURLY WEATHER
NATIONAL WEATHER SERVICE SPRINGFIELD MO
900 AM CDT SAT JUL 23 2016

......SGF CWA......

CITY           SKY/WX    TMP DP  RH WIND       PRES   REMARKS
SPRINGFIELD    SUNNY     85  74  69 SW8       30.03R HX  92
JOPLIN         SUNNY     87  75  67 S7        30.01R HX  96
WEST PLAINS    SUNNY     83  76  79 CALM      30.06R HX  91
ROLLA          SUNNY     83  73  72 S8        30.01S
BRANSON        SUNNY     86  73  66 CALM      30.05R HX  93

......SURROUNDING SGF CWA......

CITY           SKY/WX    TMP DP  RH WIND       PRES   REMARKS
CHANUTE        SUNNY     85  73  67 S7        29.99R HX  91
PARSONS        SUNNY     84  74  71 S6        30.00R HX  91
COFFEYVILLE    SUNNY     86  73  65 S10       29.99R HX  93
EMPORIA        MOSUNNY   81  71  71 NW3       29.99R
HARRISON AR    SUNNY     82  75  79 SE3       30.05R

......KANSAS AND MISSOURI......

CITY           SKY/WX    TMP DP  RH WIND       PRES   REMARKS
KANSAS CTY INT CLOUDY    83  74  74 SW9       29.97R
SEDALIA        SUNNY     86  75  69 SW9       30.01R HX  95
ST JOSEPH      CLOUDY    84  74  71 SW12G22   29.92F HX  91
ST LOUIS       MOSUNNY   85  72  65 S7        30.01S HX  91
WICHITA        CLOUDY    82  69  64 S6        29.97R
TOPEKA         CLOUDY    85  72  65 S7        29.95F HX  91
OLATHE         MOSUNNY   82  73  74 S7        29.99R

......TENNESSEE......

CITY           SKY/WX    TMP DP  RH WIND       PRES   REMARKS
MEMPHIS        NOT AVBL
NASHVILLE      CLOUDY    83  75  77 CALM      30.03R HX  90

......ARKANSAS.......

CITY           SKY/WX    TMP DP  RH WIND       PRES   REMARKS
FAYETTEVILLE   SUNNY     82  77  84 CALM      30.04R HX  90
FT SMITH       SUNNY     86  76  71 NE3       29.99R HX  96
LITTLE ROCK    SUNNY     89  77  67 W3        29.98S HX 101

......OKLAHOMA.......

CITY           SKY/WX    TMP DP  RH WIND       PRES   REMARKS
TULSA          MOSUNNY   88  70  55 SW7       29.97R HX  93
PONCA CITY     SUNNY     85  68  56 VRB7      29.97R
MCALESTER      MOSUNNY   85  73  67 S5        30.00R HX  91
OKLAHOMA CITY  MOSUNNY   83  68  60 SW9       30.00R

......IOWA............

CITY           SKY/WX    TMP DP  RH WIND       PRES   REMARKS
DES MOINES     NOT AVBL
QUAD CITIES    SUNNY     84  77  79 SE3       29.97R HX  94

......ILLINOIS........

CITY           SKY/WX    TMP DP  RH WIND       PRES   REMARKS
QUINCY         NOT AVBL
CHICAGO        PTSUNNY   84  76  76 VRB3      29.98F HX  93




USA.gov is the U.S. government's official web portal to all federal, state and local government web resources and services.